Location: Castillon
(43.0896°N, 0.2156°E)
Time: 17:06:04
(UTC+00:00)

Cosmos 1300 - Pass Details

Date: 16 June 2021
Orbit: 509 x 513 km, 82.5° (Epoch: 03 August)

Event Time Altitude Azimuth Distance (km) Brightness Sun altitude
Rises 22:04:02 0° 354° (N) 2,637 7.6 -18.4°
Reaches altitude 10° 22:06:12 10° 357° (N) 1,745 6.4 -18.6°
Maximum altitude 22:10:00 67° 80° (E) 558 2.7 -18.9°
Enters shadow 22:10:43 53° 137° (SE) 636 2.7 -18.9°
